Time,TemperatureF,DewpointF,PressureIn,WindDirection,WindDirectionDegrees,WindSpeedMPH,WindSpeedGustMPH,Humidity,HourlyPrecipIn,Conditions,Clouds,dailyrainin,SolarRadiationWatts/m^2,SoftwareType,DateUTC
2013-08-27 00:00:00,66.0,65.0,-100.00,South,180,0.0,-999.0,95,-99.99,,,-99.99,0.000000,,2013-08-27 04:00:00,
2013-08-27 00:47:00,66.0,65.0,-100.00,South,180,0.0,-999.0,95,-99.99,,,-99.99,0.000000,,2013-08-27 04:47:00,
2013-08-27 00:54:00,66.0,65.0,-100.00,South,180,0.0,-999.0,95,-99.99,,,-99.99,0.000000,,2013-08-27 04:54:00,
2013-08-27 01:00:00,66.0,65.0,-100.00,SW,225,0.0,-999.0,95,-99.99,,,-99.99,0.000000,,2013-08-27 05:00:00,
2013-08-27 01:43:00,66.0,65.0,-100.00,SW,225,0.0,-999.0,95,-99.99,,,-99.99,0.000000,,2013-08-27 05:43:00,
2013-08-27 01:52:00,66.0,65.0,-100.00,SW,225,0.0,-999.0,95,-99.99,,,-99.99,0.000000,,2013-08-27 05:52:00,
2013-08-27 02:00:00,67.0,66.0,-100.00,SW,225,0.0,-999.0,95,-99.99,,,-99.99,0.000000,,2013-08-27 06:00:00,
2013-08-27 02:42:00,67.0,66.0,-100.00,SW,225,0.0,-999.0,95,-99.99,,,-99.99,0.000000,,2013-08-27 06:42:00,
2013-08-27 02:52:00,67.0,66.0,-100.00,SW,225,0.0,-999.0,95,-99.99,,,-99.99,0.000000,,2013-08-27 06:52:00,
2013-08-27 03:00:00,67.0,66.0,-100.00,SSW,202,0.0,-999.0,95,-99.99,,,-99.99,0.000000,,2013-08-27 07:00:00,
2013-08-27 03:42:00,67.0,66.0,-100.00,SSW,202,0.0,-999.0,95,-99.99,,,-99.99,0.000000,,2013-08-27 07:42:00,
2013-08-27 03:52:00,67.0,66.0,-100.00,SSW,202,0.0,-999.0,95,-99.99,,,-99.99,0.000000,,2013-08-27 07:52:00,
2013-08-27 06:00:00,69.0,67.0,-100.00,SE,135,0.0,-999.0,95,-99.99,,,-99.99,0.000000,,2013-08-27 10:00:00,
2013-08-27 06:43:00,69.0,67.0,-100.00,SE,135,0.0,-999.0,95,-99.99,,,-99.99,0.000000,,2013-08-27 10:43:00,
2013-08-27 06:53:00,69.0,67.0,-100.00,SE,135,0.0,-999.0,95,-99.99,,,-99.99,0.000000,,2013-08-27 10:53:00,
2013-08-27 08:00:00,69.0,68.0,-100.00,SW,225,0.0,-999.0,96,0.01,,,-99.99,18.559999,,2013-08-27 12:00:00,
2013-08-27 08:42:00,69.0,68.0,-100.00,SW,225,0.0,-999.0,96,0.01,,,-99.99,18.559999,,2013-08-27 12:42:00,
2013-08-27 08:52:00,69.0,68.0,-100.00,SW,225,0.0,-999.0,96,0.01,,,-99.99,18.559999,,2013-08-27 12:52:00,
2013-08-27 09:00:00,69.0,68.0,-100.00,SW,225,1.0,-999.0,95,-99.99,,,-99.99,31.320000,,2013-08-27 13:00:00,
2013-08-27 09:42:00,69.0,68.0,-100.00,SW,225,1.0,-999.0,95,-99.99,,,-99.99,31.320000,,2013-08-27 13:42:00,
2013-08-27 09:52:00,69.0,68.0,-100.00,SW,225,1.0,-999.0,95,-99.99,,,-99.99,31.320000,,2013-08-27 13:52:00,
2013-08-27 10:00:00,70.0,68.0,-100.00,SSW,202,2.0,-999.0,94,-99.99,,,-99.99,51.040001,,2013-08-27 14:00:00,
2013-08-27 10:42:00,70.0,68.0,-100.00,SSW,202,2.0,-999.0,94,-99.99,,,-99.99,51.040001,,2013-08-27 14:42:00,
2013-08-27 10:53:00,70.0,68.0,-100.00,SSW,202,2.0,-999.0,94,-99.99,,,-99.99,51.040001,,2013-08-27 14:53:00,
2013-08-27 12:00:00,72.0,69.0,-100.00,SSW,202,1.0,-999.0,90,-99.99,,,-99.99,182.119995,,2013-08-27 16:00:00,
2013-08-27 12:46:00,72.0,69.0,-100.00,SSW,202,1.0,-999.0,90,-99.99,,,-99.99,182.119995,,2013-08-27 16:46:00,
2013-08-27 12:55:00,72.0,69.0,-100.00,SSW,202,1.0,-999.0,90,-99.99,,,-99.99,182.119995,,2013-08-27 16:55:00,
2013-08-27 13:00:00,74.0,69.0,-100.00,SSW,202,1.0,-999.0,86,-99.99,,,-99.99,189.080002,,2013-08-27 17:00:00,
2013-08-27 13:43:00,74.0,69.0,-100.00,SSW,202,1.0,-999.0,86,-99.99,,,-99.99,189.080002,,2013-08-27 17:43:00,
2013-08-27 13:52:00,74.0,69.0,-100.00,SSW,202,1.0,-999.0,86,-99.99,,,-99.99,189.080002,,2013-08-27 17:52:00,
2013-08-27 14:00:00,74.0,70.0,-100.00,SSE,157,3.0,-999.0,85,-99.99,,,-99.99,281.880005,,2013-08-27 18:00:00,
2013-08-27 14:42:00,74.0,70.0,-100.00,SSE,157,3.0,-999.0,85,-99.99,,,-99.99,281.880005,,2013-08-27 18:42:00,
2013-08-27 14:53:00,74.0,70.0,-100.00,SSE,157,3.0,-999.0,85,-99.99,,,-99.99,281.880005,,2013-08-27 18:53:00,
2013-08-27 15:00:00,76.0,70.0,-100.00,SE,135,3.0,-999.0,81,-99.99,,,-99.99,411.799988,,2013-08-27 19:00:00,
2013-08-27 15:42:00,76.0,70.0,-100.00,SE,135,3.0,-999.0,81,-99.99,,,-99.99,411.799988,,2013-08-27 19:42:00,
2013-08-27 15:52:00,76.0,70.0,-100.00,SE,135,3.0,-999.0,81,-99.99,,,-99.99,411.799988,,2013-08-27 19:52:00,